Weather in Tollhouse

United States     37°00′50″N   119°22′04″W
temp.,
°C
wind,
m/s
gust,
m/s
humid.,
%
clouds,
%
prec.,
mm/h
press.,
hPa
HPBL,
m
16 may, sun
sun1623:00+11ne324865 0.0 101120
02:00+9ene22531 0.0 101116
05:00+8ne22584 0.0 101214
08:00+13sw21485 0.0 1012489
11:00+16sw434728 0.0 10121311
14:00+15sw226097 0.8 10131288
17:00+16nne125883 1.2 10121084
20:00+13ne2268100 0.1 101342
17 may, mon
mon1723:00+11ne32694 0.2 101426
02:00+11ne32672 0.0 101428
05:00+10ne22670 0.0 101418
08:00+16sw21510 0.0 1015462
11:00+20sw43431 0.0 10141168
14:00+22sw433810 0.1 10131613
17:00+22wsw333626 0.1 10121838
20:00+16n11503 0.0 101311
18 may, tue
tue1823:00+14ne325928 0.0 101519
02:00+13ne326038 0.0 101525
05:00+12ene22626 0.0 101518
08:00+17sw21480 0.0 1016370
11:00+21sw43360 0.0 10151044
14:00+24wsw43270 0.0 10141498
17:00+23wsw33200 0.0 10121640
20:00+16nne22330 0.0 101311
19 may, wed
wed1923:00+13ne22380 0.0 101417
02:00+12ene324189 0.0 101319
05:00+10ene21463 0.0 101312
08:00+15ssw21380 0.0 1013380
11:00+18sw42280 0.0 1012928
14:00+20sw43210 0.0 10111382
17:00+20wsw32180 0.0 10091603
20:00+12wnw11330 0.0 101015
20 may, thu
thu2023:00+9ne22370 0.0 101215
02:00+8e21410 0.0 101213
05:00+4ese11540 0.0 101310
08:00+8sw21470 0.0 1014419
11:00+11sw43320 0.0 10131169
14:00+14wsw54180 0.0 10111939
17:00+13w55180 0.0 10102391
20:00+6nnw223119 0.0 101213